CZ-6A DEB

Satellite information

Favourite Embed

Satellite Type and Status

DEBRISIN ORBIT

Key statistics

Satellite CZ-6A DEB at a glance.

Uptime

969

Days in orbit

Revolutions

≈ 13.9

Per day

Orbit

SSO

Sun Synchronous Orbit

Inclination

98.9

Latest

Satellite identification and parameters

Extended collection of information and parameters for CZ-6A DEB.

Object identification

Identified? True

Debris? True

Object name: CZ-6A DEB

International designator: 2022-151FZ

Object number (NORAD): 54449

Object ID (CCSDS): 54449

Country: PEOPLES REPUBLIC OF CHINA (PRC)

Current information (Y/N): Y

RCS size: SMALL

Orbital parameters

Period: 103.408 minutes

Inclination: 98.9367 deg

SMA: 7297.859 km

Apoapsis: 1016.344 km

Periapsis: 823.104 km

RAAN: 169.3891 deg

Eccentricy: 0.0132395

Argument of periapsis: 299.4878 deg

Mean anomaly: 59.313 deg

Mean motion: 13.92546145 rev/day

Mean motion (dot): 0.00000472 rev/day2

B* drag term: 0.00037255 1/REarth

Two-line elements (TLE)

Creation date: July 6, 2025, 10:26 p.m.

Reference frame: TEME

Reference center: EARTH

Epoch: July 6, 2025, 9:29 p.m. UTC

TLE line 0: 0 CZ-6A DEB

TLE line 1: 1 54449U 22151FZ 25187.89514768 .00000472 00000-0 37255-3 0 9996

TLE line 2: 2 54449 98.9367 169.3891 0132395 299.4878 59.3130 13.92546145134365

Live tracking on map

Real-time ground track for satellite CZ-6A DEB.

In-orbit conjunctions

A list of the most updated potential collisions computed for object CZ-6A DEB.

Target Orbit TCA Probability of collision Miss distance Type
FENGYUN 1C DEB SSO 2024-11-15 14:30:21 0.0001658594 604.0 (m) DEBRIS
THORAD AGENA D DEB SSO 2024-11-14 12:35:25 0.0001698614 931.0 (m) DEBRIS

Associated space launch

Chinese satellite reported for atmospheric/ocean/environmental/spatial parameter research purposes, details TBD.

CZ-6A DEB was lifted into orbit during the mission ‘Long March 6A | Yunhai 3’, on board a Long March 6A space rocket.

The launch took place on Nov. 11, 2022, 10:52 p.m. from Launch Complex 9A.

For more information about the launch, click the button.

Launch to space Long March 6A | Yunhai 3
Long March 6A | Yunhai 3

Agency: N/A

Status: Launch Successful

Launch date: Nov. 11, 2022, 10:52 p.m. UTC

Rocket: Long March 6A

Launch pad: Launch Complex 9A

Location: Taiyuan Satellite Launch Center, People's Republic of China

...

Latest news about this satellite

There are no fresh news available about this satellite. Check back as we update our databases every day.


Newsletter sign-up

Weekly statistics, charts and insights to help you stay on top of the space industry.